Date,TemperatureHighF,TemperatureAvgF,TemperatureLowF,DewpointHighF,DewpointAvgF,DewpointLowF,HumidityHigh,HumidityAvg,HumidityLow,PressureMaxIn,PressureMinIn,WindSpeedMaxMPH,WindSpeedAvgMPH,GustSpeedMaxMPH,PrecipitationSumIn
2013-9-1,62.2,59.8,57.9,55.7,50.3,46.8,85,71,66,30.39,30.25,25,17,35,0.13
2013-9-2,63.7,61.7,60.1,59.7,58.3,55.8,93,88,82,30.25,30.20,25,18,36,0.08
2013-9-3,69.3,61.5,54.5,56.8,53.0,48.8,88,74,57,30.23,30.07,17,11,25,0.00
2013-9-4,71.2,60.0,52.9,57.9,53.2,48.8,90,79,56,30.06,29.81,24,14,33,0.05
2013-9-5,67.6,57.3,49.8,51.3,46.2,40.7,94,68,41,29.89,29.83,15,4,29,0.01
2013-9-6,64.6,55.5,48.2,47.3,44.0,41.6,83,66,45,29.87,29.81,15,6,32,0.06
2013-9-7,55.8,53.0,51.6,45.8,44.3,41.7,77,73,62,29.86,29.79,16,9,30,0.05
2013-9-8,59.9,55.6,51.6,47.1,45.2,42.7,80,68,55,29.84,29.79,17,8,24,0.00
2013-9-9,66.8,56.9,50.0,58.5,48.1,43.4,81,73,61,30.22,29.84,9,3,21,0.00
2013-9-10,67.1,59.3,53.8,50.9,48.9,46.4,81,69,54,30.29,30.21,10,5,21,0.00
2013-9-11,66.1,61.1,56.1,59.3,56.2,49.9,91,84,76,30.29,30.07,18,11,25,0.13
2013-9-12,64.4,60.8,56.1,60.4,57.6,49.5,94,89,76,30.07,29.92,28,12,37,0.04
2013-9-13,62.6,56.1,52.2,49.0,46.4,43.8,82,71,52,30.05,29.99,8,2,28,0.00
2013-9-14,63.5,56.2,49.1,50.1,46.7,43.9,87,71,50,30.05,29.89,22,7,29,0.02
2013-9-15,61.6,57.0,50.6,58.8,48.7,38.2,92,75,46,29.89,29.44,41,28,55,14.22
2013-9-16,61.4,54.4,49.9,49.2,42.2,38.7,77,64,48,29.90,29.51,32,18,46,0.97
2013-9-17,63.6,56.8,51.8,57.3,49.9,40.7,92,78,61,29.58,29.28,30,15,44,9.97
2013-9-18,66.9,57.5,52.0,49.2,45.0,41.2,85,64,44,29.78,29.41,15,8,29,0.00
2013-9-19,63.7,58.0,51.3,58.0,47.8,44.2,91,69,53,29.86,29.45,38,19,52,29.67
2013-9-20,67.4,59.3,55.4,54.4,48.9,43.2,87,69,58,29.92,29.85,20,10,23,0.00
2013-9-21,64.0,60.8,58.1,58.9,57.0,54.6,93,87,82,30.09,29.89,26,14,33,0.00
2013-9-22,73.8,65.1,59.2,58.6,56.7,55.0,88,75,56,30.16,30.08,22,12,29,0.00
2013-9-23,76.6,64.5,57.6,62.1,56.9,53.1,86,77,61,30.10,29.90,15,7,24,0.00
2013-9-24,67.2,62.3,59.2,58.6,56.2,54.0,87,81,68,30.05,29.78,13,5,18,0.00
2013-9-25,74.3,63.3,59.4,60.8,56.7,55.0,90,80,57,29.79,29.71,9,3,15,0.00
2013-9-26,69.8,61.7,57.7,59.0,56.0,54.1,89,82,65,29.91,29.76,9,5,16,0.00
2013-9-27,70.1,61.0,52.7,58.6,54.5,48.9,88,80,64,29.83,29.70,13,5,16,0.00
2013-9-28,70.2,61.8,55.4,56.6,53.7,50.7,85,75,60,29.70,29.55,12,7,21,0.00
2013-9-29,65.9,60.1,57.6,53.8,51.5,49.4,82,73,65,29.57,29.51,13,7,23,0.01
2013-9-30,62.5,59.7,57.2,56.1,53.8,49.1,87,81,73,29.51,29.42,17,11,29,0.04